Regional Weather Roundup
Issued by NWS Sterling, VA

Home | Current Version | Previous Version | Graphics & Text | Print | Product List | Glossary On
Versions: 1 2 3 4 5 6 7 8 9 10 11 12 13 14 15 16 17 18 19 20 21 22 23 24 25 26 27 28 29 30 31 32 33 34 35 36 37 38 39 40 41 42 43 44 45 46 47 48 49 50
000
ASUS41 KLWX 292010
RWRLWX

REGIONAL WEATHER ROUNDUP
NATIONAL WEATHER SERVICE BALTIMORE MD/WASHINGTON DC
300 PM EST THU JAN 29 2015

Note: "FAIR" indicates few or no clouds below 12,000 feet
with no significant weather and/or obstructions to visibility.
 TC=TEMPERATURE CELSIUS

 * =Non NWS site. Station does not report precipitation (e.g. rain,
    snow, etc.), thunder, or fog.

DCZ001-MDZ009-015-VAZ040>042-051-053>054-292100-
WASHINGTON METRO

CITY           SKY/WX    TMP DP  RH WIND       PRES   REMARKS
WASHINGTON NAT CLOUDY    38  15  39 SE10      30.13F
DULLES         CLOUDY    34  13  41 S9        30.09F WCI  27
FT BELVOIR     CLOUDY    36  16  44 SE9       30.13F WCI  29
QUANTICO       CLOUDY    37  21  52 S13       30.14F WCI  29
COLLEGE PARK*  CLOUDY    36  12  38 SE5       30.13F
LEESBURG*      MIX PCPN  34  18  51 SE9       30.09F WCI  26
GAITHERSBURG*  CLOUDY    32  10  40 SE14      30.12F WCI  22

$$

MDZ006>007-011-014-292100-
BALTIMORE METRO

CITY           SKY/WX    TMP DP  RH WIND       PRES   REMARKS
BWI AIRPORT    CLOUDY    33  14  45 SE7       30.14F
MD SCIENCE CTR   N/A     34  15  46 MISG      30.15F
MARTIN STATE   CLOUDY    34  19  55 SE9       30.17F WCI  26
ANNAPOLIS      CLOUDY    33  21  61 SE12      30.16F WCI  24
FORT MEADE*    CLOUDY    34  16  47 SE3       30.17S

$$

MDZ012-015-019>023-292100-
MARYLAND EASTERN SHORE

CITY           SKY/WX    TMP DP  RH WIND       PRES   REMARKS
OCEAN CITY     CLOUDY    34  22  61 S5        30.20F
SALISBURY      CLOUDY    40  13  33 S8        30.18F
BAY BRIDGE AP*   N/A     34  14  44 S9        30.16F WCI  26
CAMBRIDGE*     CLOUDY    36  18  48 S6        30.18S
EASTON*        CLOUDY    37  16  41 S8        30.21F

$$

MDZ017>025-292100-
SOUTHERN MARYLAND

CITY           SKY/WX    TMP DP  RH WIND       PRES   REMARKS
PATUXENT RIVER CLOUDY    37  16  42 S10       30.16F
ST INIGOES     CLOUDY    37  18  46 SE7       30.16F
LEONARDTOWN*   CLOUDY    36  16  44 SE9       30.17F WCI  29

$$

MDZ003>005-292100-
NORTH CENTRAL MARYLAND

CITY           SKY/WX    TMP DP  RH WIND       PRES   REMARKS
FREDERICK*     NOT AVBL
HAGERSTOWN APT MIX PCPN  32  15  49 SE8       30.03F WCI  25
WESTMINSTER*   CLOUDY    32  12  43 SE10G16   30.07F WCI  24

$$

MDZ501>502-292100-
WESTERN MARYLAND

CITY           SKY/WX    TMP DP  RH WIND       PRES   REMARKS
OAKLAND*       CLOUDY    28 N/A N/A SE10      29.83F HAZE    WCI  19
CUMBERLAND*    CLOUDY    30  16  55 CALM      30.04F

$$

VAZ025>031-292100-
SHENANDOAH VALLEY

CITY           SKY/WX    TMP DP  RH WIND       PRES   REMARKS
WINCHESTER*    LGT RAIN  36  14  41 S8        30.03S
FRONT ROYAL*   CLOUDY    36  18  48 S3        30.01F
LURAY*         LGT RAIN  37  23  56 SW8       30.01F
NEW MARKET*    CLOUDY    38  23  55 SW5       30.00F
STAUNTON*      LGT RAIN  37  25  62 S6        30.03F
WAYNESBORO*    CLOUDY    36  26  69 S5        30.01F

$$

WVZ021-048>050-054>055-292100-
EASTERN WEST VIRGINIA PANHANDLE

CITY           SKY/WX    TMP DP  RH WIND       PRES   REMARKS
MARTINSBURG    MIX PCPN  35  15  44 SE7       30.04F
PETERSBURG*    MIX PCPN  31  24  72 CALM      29.97F

$$

VAZ036>039-050-292100-
CENTRAL FOOTHILLS

CITY           SKY/WX    TMP DP  RH WIND       PRES   REMARKS
CHARLOTTESVILL LGT RAIN  39  22  50 S17       30.07F
CULPEPER*      CLOUDY    39  10  30 S7        30.10F
ORANGE*        CLOUDY    41  14  33 SE7       30.10F
GORDONSVILLE*  CLOUDY    40  15  36 S13       30.08F
WARRENTON*     CLOUDY    40  19  44 S6        30.08F

$$

VAZ055>057-292100-
NORTH AND CENTRAL PIEDMONT

CITY           SKY/WX    TMP DP  RH WIND       PRES   REMARKS
FREDERICKSBRG* CLOUDY    41  13  31 S10       30.12F
STAFFORD*      CLOUDY    39   9  29 CALM      30.15F

$$

NCZ024-NYZ072-PAZ021-071-VAZ022-071-292100-
OTHER REGIONAL OBSERVATIONS

CITY           SKY/WX    TMP DP  RH WIND       PRES   REMARKS
NEW YORK CITY  CLOUDY    31  15  52 S5        30.21S
PHILADELPHIA   CLOUDY    34  10  37 S7        30.18F
PITTSBURGH     CLOUDY    36  34  92 S6        29.80F
ROANOKE        CLOUDY    40  25  55 CALM      30.06F
RICHMOND       CLOUDY    42  13  30 S12       30.16F
RALEIGH        PTSUNNY   46  16  30 SW9       30.19F

$$

ANZ530>537-292100-
MARINE OBSERVATIONS

STATION/POSITION TIME  TEMP    WIND        PRES
                       AIR SEA DIR/SP/G
                 (UTC) (F)     (DEG/KT/KT) (MB)
THOMAS PT LIGHT  2000   33 36  160/ 16/ 17 1022.0F
BALT KEY BRIDGE  1900   32     140/ 12/ 14 1021.6F
COVE POINT       1900   32     180/ 13/ 14 1022.2F
LEWISETTA        1900   36 35  160/  9/ 10 1022.0F
SOLOMONS ISLAND  1900      37                N/A
PINEY POINT      1900          160/  8/  9   N/A

$$




USA.gov is the U.S. government's official web portal to all federal, state and local government web resources and services.